When you browse on this site, cookies collect data to enhance your experience and personalize the content and advertising you see.
Visit our Privacy Policy to learn more. By continuing to use the site, you agree to this use of cookies and data.
  • En España
  • Lista de países
  • Para 7 días
  • Temperatura del agua
  • Mapa Satelital
  • El tiempo en el mapa
  • Informadores
  • user-avatar
    Iniciar sesión

    Tiempo cada hora Stublevka

    Hoy, 22 Marzo, Viernes

    Tiempo Temperatura Precipitaciones Viento Presión Humedad
    00:00 -3°C° 0 mm 2 mps 742 mmHg 92%
    01:00 -3°C° 0 mm 2 mps 742 mmHg 91%
    02:00 -3°C° 0 mm 2 mps 742 mmHg 90%
    03:00 -3°C° 0 mm 2 mps 741 mmHg 90%
    04:00 -4°C° 0 mm 3 mps 741 mmHg 90%
    05:00 -4°C° 0 mm 3 mps 740 mmHg 90%
    06:00 -3°C° 0.1 mm 4 mps 739 mmHg 89%
    07:00 -2°C° 0.1 mm 5 mps 738 mmHg 88%
    08:00 -2°C° 0.1 mm 6 mps 738 mmHg 87%
    09:00 -2°C° 0.9 mm 6 mps 736 mmHg 89%
    10:00 -2°C° 0.9 mm 7 mps 735 mmHg 90%
    11:00 -2°C° 0.9 mm 8 mps 734 mmHg 92%
    12:00 -1°C° 0.8 mm 8 mps 734 mmHg 92%
    13:00 -1°C° 0.8 mm 8 mps 733 mmHg 91%
    14:00 -1°C° 0.8 mm 8 mps 733 mmHg 90%
    15:00 -2°C° 0.4 mm 8 mps 733 mmHg 87%
    16:00 -2°C° 0.4 mm 8 mps 734 mmHg 83%
    17:00 -3°C° 0.4 mm 9 mps 734 mmHg 80%
    18:00 -4°C° 0.2 mm 8 mps 734 mmHg 81%
    19:00 -4°C° 0.2 mm 8 mps 735 mmHg 83%
    20:00 -4°C° 0.2 mm 7 mps 735 mmHg 84%
    21:00 -4°C° 0.2 mm 7 mps 735 mmHg 85%
    22:00 -4°C° 0.2 mm 7 mps 735 mmHg 85%
    23:00 -4°C° 0.2 mm 7 mps 735 mmHg 85%

    Mañana, 23 Marzo, Sábado

    Tiempo Temperatura Precipitaciones Viento Presión Humedad
    00:00 -4°C° 0.1 mm 7 mps 735 mmHg 86%
    01:00 -4°C° 0.1 mm 7 mps 735 mmHg 87%
    02:00 -4°C° 0.1 mm 7 mps 735 mmHg 88%
    03:00 -4°C° 0.1 mm 7 mps 735 mmHg 89%
    04:00 -3°C° 0.1 mm 7 mps 736 mmHg 90%
    05:00 -3°C° 0.1 mm 7 mps 736 mmHg 91%
    06:00 -3°C° 0.1 mm 7 mps 737 mmHg 90%
    07:00 -3°C° 0.1 mm 7 mps 739 mmHg 90%
    08:00 -3°C° 0.1 mm 7 mps 740 mmHg 90%
    09:00 -3°C° 0 mm 7 mps 740 mmHg 89%
    10:00 -3°C° 0 mm 6 mps 741 mmHg 88%
    11:00 -3°C° 0 mm 6 mps 742 mmHg 87%
    12:00 -3°C° 0.1 mm 6 mps 742 mmHg 86%
    13:00 -2°C° 0.1 mm 5 mps 742 mmHg 85%
    14:00 -2°C° 0.1 mm 5 mps 742 mmHg 84%
    15:00 -2°C° 0 mm 4 mps 743 mmHg 85%
    16:00 -1°C° 0 mm 3 mps 743 mmHg 85%
    17:00 -1°C° 0 mm 3 mps 743 mmHg 86%
    18:00 -2°C° 0 mm 2 mps 743 mmHg 87%
    19:00 -2°C° 0 mm 2 mps 743 mmHg 89%
    20:00 -2°C° 0 mm 2 mps 744 mmHg 91%
    21:00 -1°C° 0 mm 1 mps 743 mmHg 91%
    22:00 -1°C° 0 mm 1 mps 743 mmHg 91%
    23:00 -1°C° 0 mm 1 mps 743 mmHg 91%

    Pasado mañana, 24 Marzo, Domingo

    Tiempo Temperatura Precipitaciones Viento Presión Humedad
    00:00 -2°C° 0 mm 1 mps 743 mmHg 90%
    01:00 -2°C° 0 mm 1 mps 742 mmHg 90%
    02:00 -2°C° 0 mm 1 mps 742 mmHg 90%
    03:00 -2°C° 0 mm 1 mps 742 mmHg 90%
    04:00 -4°C° 0 mm 2 mps 741 mmHg 90%
    05:00 -4°C° 0 mm 2 mps 741 mmHg 89%
    06:00 -5°C° 0 mm 3 mps 741 mmHg 88%
    07:00 -4°C° 0 mm 3 mps 740 mmHg 86%
    08:00 -3°C° 0 mm 4 mps 740 mmHg 84%
    09:00 -3°C° 0.1 mm 4 mps 739 mmHg 85%
    10:00 -2°C° 0.1 mm 5 mps 739 mmHg 86%
    11:00 -2°C° 0.1 mm 5 mps 738 mmHg 87%
    12:00 -2°C° 0.2 mm 5 mps 738 mmHg 89%
    13:00 -1°C° 0.2 mm 5 mps 737 mmHg 90%
    14:00 -1°C° 0.2 mm 5 mps 737 mmHg 91%
    15:00 -1°C° 0.1 mm 5 mps 737 mmHg 92%
    16:00 -1°C° 0.1 mm 4 mps 736 mmHg 93%
    17:00 -1°C° 0.1 mm 4 mps 736 mmHg 94%
    18:00 0°C° 0.1 mm 3 mps 736 mmHg 93%
    19:00 0°C° 0.1 mm 3 mps 736 mmHg 92%
    20:00 -1°C° 0.1 mm 3 mps 736 mmHg 91%
    21:00 -1°C° 0 mm 3 mps 736 mmHg 90%
    22:00 -1°C° 0 mm 3 mps 736 mmHg 89%
    23:00 -2°C° 0 mm 3 mps 736 mmHg 87%

    25 Marzo, Lunes

    Tiempo Temperatura Precipitaciones Viento Presión Humedad
    00:00 -2°C° 0 mm 3 mps 736 mmHg 88%
    01:00 -4°C° 0 mm 3 mps 736 mmHg 88%
    02:00 -4°C° 0 mm 3 mps 736 mmHg 88%
    03:00 -5°C° 0 mm 3 mps 736 mmHg 89%
    04:00 -5°C° 0 mm 3 mps 736 mmHg 90%
    05:00 -5°C° 0 mm 3 mps 736 mmHg 90%
    06:00 -5°C° 0 mm 4 mps 736 mmHg 88%
    07:00 -4°C° 0 mm 4 mps 736 mmHg 86%
    08:00 -4°C° 0 mm 5 mps 737 mmHg 84%
    09:00 -4°C° 0 mm 5 mps 737 mmHg 81%
    10:00 -2°C° 0 mm 5 mps 737 mmHg 77%
    11:00 -2°C° 0 mm 5 mps 737 mmHg 73%
    12:00 -1°C° 0.1 mm 5 mps 737 mmHg 71%
    13:00 -1°C° 0.1 mm 5 mps 737 mmHg 69%
    14:00 -1°C° 0.1 mm 5 mps 737 mmHg 67%
    15:00 -1°C° 0 mm 4 mps 737 mmHg 68%
    16:00 -2°C° 0 mm 4 mps 737 mmHg 69%
    17:00 -1°C° 0 mm 3 mps 737 mmHg 70%
    18:00 -2°C° 0 mm 3 mps 737 mmHg 72%
    19:00 -2°C° 0 mm 2 mps 738 mmHg 74%
    20:00 -3°C° 0 mm 2 mps 738 mmHg 77%
    21:00 -3°C° 0 mm 2 mps 738 mmHg 77%
    22:00 -3°C° 0 mm 2 mps 738 mmHg 78%
    23:00 -3°C° 0 mm 2 mps 738 mmHg 79%

    26 Marzo, Martes

    Tiempo Temperatura Precipitaciones Viento Presión Humedad
    00:00 -4°C° 0 mm 3 mps 738 mmHg 80%
    01:00 -4°C° 0 mm 3 mps 738 mmHg 80%
    02:00 -4°C° 0 mm 3 mps 738 mmHg 81%
    03:00 -4°C° 0 mm 3 mps 738 mmHg 81%
    04:00 -4°C° 0 mm 3 mps 738 mmHg 81%
    05:00 -4°C° 0 mm 3 mps 738 mmHg 81%
    06:00 -4°C° 0 mm 4 mps 738 mmHg 78%
    07:00 -3°C° 0 mm 4 mps 738 mmHg 74%
    08:00 -2°C° 0 mm 4 mps 739 mmHg 71%
    09:00 -1°C° 0 mm 5 mps 739 mmHg 68%
    10:00 0°C° 0 mm 5 mps 739 mmHg 65%
    11:00 +1°C° 0 mm 5 mps 739 mmHg 62%
    12:00 +1°C° 0 mm 5 mps 738 mmHg 60%
    13:00 +1°C° 0 mm 5 mps 738 mmHg 58%
    14:00 +2°C° 0 mm 5 mps 738 mmHg 57%
    15:00 +1°C° 0.1 mm 4 mps 738 mmHg 64%
    16:00 +1°C° 0.1 mm 3 mps 738 mmHg 71%
    17:00 +1°C° 0.1 mm 2 mps 738 mmHg 78%
    18:00 +1°C° 0.2 mm 2 mps 738 mmHg 83%
    19:00 -1°C° 0.2 mm 2 mps 738 mmHg 88%
    20:00 -2°C° 0.2 mm 2 mps 738 mmHg 94%
    21:00 -2°C° 0 mm 2 mps 738 mmHg 93%
    22:00 -3°C° 0 mm 2 mps 738 mmHg 91%
    23:00 -3°C° 0 mm 2 mps 737 mmHg 90%

    27 Marzo, Miércoles

    Tiempo Temperatura Precipitaciones Viento Presión Humedad
    00:00 -4°C° 0 mm 3 mps 737 mmHg 86%
    01:00 -4°C° 0 mm 3 mps 736 mmHg 83%
    02:00 -4°C° 0 mm 4 mps 736 mmHg 79%
    03:00 -4°C° 0.1 mm 4 mps 735 mmHg 78%
    04:00 -5°C° 0.1 mm 5 mps 735 mmHg 78%
    05:00 -4°C° 0.1 mm 5 mps 734 mmHg 77%
    06:00 -4°C° 0.3 mm 5 mps 734 mmHg 79%
    07:00 -4°C° 0.3 mm 6 mps 734 mmHg 82%
    08:00 -3°C° 0.3 mm 6 mps 733 mmHg 84%
    09:00 -3°C° 0.2 mm 6 mps 733 mmHg 79%
    10:00 -2°C° 0.2 mm 5 mps 734 mmHg 74%
    11:00 -1°C° 0.2 mm 5 mps 734 mmHg 69%
    12:00 -1°C° 0.3 mm 5 mps 734 mmHg 67%
    13:00 -2°C° 0.3 mm 6 mps 734 mmHg 64%
    14:00 -2°C° 0.3 mm 6 mps 734 mmHg 61%
    15:00 -2°C° 0.1 mm 6 mps 735 mmHg 64%
    16:00 -2°C° 0.1 mm 5 mps 736 mmHg 66%
    17:00 -2°C° 0.1 mm 5 mps 736 mmHg 68%
    18:00 -4°C° 0 mm 5 mps 737 mmHg 72%
    19:00 -4°C° 0 mm 5 mps 738 mmHg 75%
    20:00 -5°C° 0 mm 6 mps 738 mmHg 79%
    21:00 -5°C° 0 mm 6 mps 739 mmHg 82%
    22:00 -5°C° 0 mm 6 mps 740 mmHg 84%
    23:00 -5°C° 0 mm 5 mps 740 mmHg 87%
    Mostrar más